Regional Weather Roundup
Issued by NWS

Home | Current Version | Previous Version | Text Only | Print | Product List | Glossary On
Versions: 1 2 3 4 5 6 7 8 9 10 11 12 13 14 15 16 17 18 19 20 21 22 23 24 25 26 27 28 29 30 31 32 33 34 35 36 37 38 39 40 41 42 43 44 45 46 47 48 49 50
000
ASUS46 KSTO 191509
RWRCA

NORTHERN AND CENTRAL CA REGIONAL WEATHER ROUNDUP
NATIONAL WEATHER SERVICE SACRAMENTO CA
800 AM PDT SAT AUG 19 2017

NOTE: FAIR INDICATES FEW OR NO CLOUDS BELOW 12,000 FEET WITH NO
SIGNIFICANT WEATHER AND/OR OBSTRUCTIONS TO VISIBILITY.

CAZ001-003-191600-
NORTHWEST AREA

CITY           SKY/WX    TMP DP  RH WIND       PRES   REMARKS
CRESCENT CITY  CLOUDY    55  54  96 N13       30.00R
ARCATA         NOT AVBL
SHELTER COVE   NOT AVBL
UKIAH          SUNNY     60  55  83 SE3       29.92R
$$

CAZ006-505>513-191600-
BAY AREA

CITY           SKY/WX    TMP DP  RH WIND       PRES   REMARKS
SANTA ROSA     CLOUDY    55  53  93 CALM      29.92R
SAN RAFAEL     N/A       58  MM  MM MISG
NAPA           CLOUDY    58  55  90 NW9       29.92R
CONCORD        SUNNY     63  57  81 SW6       29.91R
OAKLAND CITY   N/A      MM  MM  MM MISG
OAKLAND        CLOUDY    61  59  93 CALM      29.92R
SAN FRAN CITY  N/A       59  MM  96 MISG
SAN FRAN ARPT  PTSUNNY   60  55  83 CALM      29.92R
LIVERMORE      CLOUDY    62  58  86 CALM      29.91R FOG
HAYWARD        CLOUDY    63  56  78 NW3       29.92R
REDWOOD CITY   N/A       63  MM  85 MISG
MOFFETT ARPT   CLOUDY    64  57  78 SE6       29.92S
SAN JOSE ARPT  PTSUNNY   63  57  81 E9        29.92R
$$
CAZ034-037-514>518-191600-
CENTRAL COAST

CITY           SKY/WX    TMP DP  RH WIND       PRES   REMARKS
WATSONVILLE    CLOUDY    59  56  89 W3        29.95S
SALINAS        CLOUDY    59  56  89 CALM      29.94S
MONTEREY       CLOUDY    58  56  93 CALM      29.95R
PT PIEDRAS BLS NOT AVBL
SAN LUIS OBISP CLOUDY    59  57  93 SE5       29.97S
SANTA MARIA    CLOUDY    58  57  97 SW3       29.98R FOG
$$
CAZ015-016-191600-
NORTHERN SACRAMENTO VALLEY

CITY           SKY/WX    TMP DP  RH WIND       PRES   REMARKS
REDDING        SUNNY     74  57  55 CALM      29.86S
RED BLUFF      SUNNY     76  61  59 NE5       29.87R
OROVILLE       SUNNY     72  59  63 SW3       29.88R
$$
CAZ016>018-191600-
SOUTHERN SACRAMENTO VALLEY

CITY           SKY/WX    TMP DP  RH WIND       PRES   REMARKS
AUBURN         SUNNY     75  70  83 CALM      29.91S
BEALE AFB      SUNNY     70  57  63 CALM      29.85S
LINCOLN        FAIR      66  54  63 CALM      29.86R
MARYSVILLE     SUNNY     68  57  68 SW3       29.87R
SAC INTL ARPT  SUNNY     63  58  83 VRB5      29.86R
MATHER AIRPORT MOSUNNY   63  57  82 S5        29.87R
DOWNTOWN SAC   N/A       63  MM  MM MISG
SAC EXEC ARPT  SUNNY     61  57  87 S7        29.87R
VACAVILLE      SUNNY     66  58  75 SW3       29.88R
TRAVIS AFB     SUNNY     61  56  83 SW20      29.86R
$$
CAZ019>021-191600-
SAN JOAQUIN VALLEY

CITY           SKY/WX    TMP DP  RH WIND       PRES   REMARKS
STOCKTON       SUNNY     66  60  81 NW9       29.87R
MODESTO        MOSUNNY   66  59  78 NW6       29.86R
MERCED         SUNNY     70  57  63 NW8       29.86R
LEMOORE        SUNNY     79  58  48 N5        29.87R
FRESNO         MOSUNNY   76  63  64 CALM      29.87R
HANFORD        SUNNY     76  61  59 NW5       29.87S
PORTERVILLE      N/A     76  61  59 S6        29.89R
BAKERSFIELD    SUNNY     80  60  50 CALM      29.88R
$$
CAZ011-012-071-191600-
NORTHERN MOUNTAINS

CITY           SKY/WX    TMP DP  RH WIND       PRES   REMARKS
YREKA          SUNNY     55  37  50 CALM      30.11R
MOUNT SHASTA   CLOUDY    63  38  39 VRB3      30.10S
ALTURAS        SUNNY     56  40  55 CALM      30.16R HAZE
$$
CAZ011-012-071-191600-
SIERRA NEVADA MTNS

CITY           SKY/WX    TMP DP  RH WIND       PRES   REMARKS
BLUE CANYON    SUNNY     74  42  31 CALM      30.16S
TRUCKEE          N/A     52  45  76 CALM      30.23S
TAHOE VLY ARPT SUNNY     53  44  71 S5        30.24S
MAMMOTH LAKES  FAIR      53  38  57 CALM      30.31S
$$




USA.gov is the U.S. government's official web portal to all federal, state and local government web resources and services.